Hourly Data Report for September 17, 2017

All times are specified in Local Standard Time (LST). Add 1 hour to adjust for Daylight Saving Time where and when it is observed.

HALL BEACH A
NUNAVUT

68°46'33.000" N
81°14'33.000" W
9.10 m
2402354
71293
YUX

Download Data

Hourly Data (September 2017)
Hourly Data Report for September 17, 2017
Temp Definition
°C
Dew Point Temp Definition
°C
Rel Hum Definition
%
Wind Dir Definition
10's deg

Wind Spd Definition
km/h
Visibility Definition
km
Stn Press Definition
kPa
Hmdx Definition


Wind Chill Definition


Weather Definition


TIME
00:00 Legend Double Dagger 0.3 -1.8 86 31 17 16.1 101.56     LegendNANA
01:00 Legend Double Dagger -0.7 -2.6 87 31 30 16.1 101.56   -7 LegendNANA
02:00 Legend Double Dagger -1.3 -2.7 90 31 26 16.1 101.60   -8 LegendNANA
03:00 Legend Double Dagger -1.6 -3.0 90 31 21 16.1 101.64   -7 LegendNANA
04:00 Legend Double Dagger -1.8 -3.2 90 31 21 16.1 101.64   -8 LegendNANA
05:00 Legend Double Dagger -1.9 -3.2 91 31 22 16.1 101.64   -8 LegendNANA
06:00 Legend Double Dagger -2.0 -3.3 91 31 21 16.1 101.67   -8 LegendNANA
07:00 Legend Double Dagger -1.8 -3.1 91 30 13 16.1 101.71   -6 LegendNANA
08:00 Legend Double Dagger -1.3 -3.2 87 30 22 16.1 101.69   -7 LegendNANA
09:00 Legend Double Dagger -0.8 -3.5 82 29 15 16.1 101.65   -5 LegendNANA
10:00 Legend Double Dagger 0.2 -3.0 79 27 13 16.1 101.64     LegendNANA
11:00 Legend Double Dagger 0.8 -3.8 71 24 9 16.1 101.57     LegendNANA
12:00 Legend Double Dagger 1.6 -2.9 72 22 15 16.1 101.58     LegendNANA
13:00 Legend Double Dagger 2.1 -3.3 68 21 22 16.1 101.53     LegendNANA
14:00 Legend Double Dagger 1.8 -2.4 74 19 18 16.1 101.50     LegendNANA
15:00 Legend Double Dagger 1.7 -1.0 82 20 24 16.1 101.46     Rain
16:00 Legend Double Dagger 2.2 -0.4 83 19 22 16.1 101.40     LegendNANA
17:00 Legend Double Dagger 2.5 0.2 85 18 22 16.1 101.33     LegendNANA
18:00 Legend Double Dagger 2.5 0.6 87 18 24 16.1 101.27     LegendNANA
19:00 Legend Double Dagger 2.2 0.6 89 18 21 16.1 101.21     LegendNANA
20:00 Legend Double Dagger 2.7 1.4 91 19 24 16.1 101.13     LegendNANA
21:00 Legend Double Dagger 2.6 1.4 92 20 22 16.1 101.08     LegendNANA
22:00 Legend Double Dagger 2.7 1.5 92 19 18 16.1 101.03     LegendNANA
23:00 Legend Double Dagger 3.3 1.8 90 22 26 16.1 100.97     LegendNANA

Notes on Data Quality.

Legend

  • E = Estimated
  • M = Missing
  • NA = Not Available
  • ‡ = Partner data that is not subject to review by the National Climate Archives
Date modified: